Regional Weather Roundup
Issued by NWS Northern Indiana

Home | Current Version | Previous Version | Graphics & Text | Print | Product List | Glossary On
Versions: 1 2 3 4 5 6 7 8 9 10 11 12 13 14 15 16 17 18 19 20 21 22 23 24 25 26 27 28 29 30 31 32 33 34 35 36 37 38 39 40 41 42 43 44 45 46 47 48 49 50
000
ASUS43 KIWX 020410
RWRIWX

KIWX WEATHER ROUNDUP
NATIONAL WEATHER SERVICE NORTHERN INDIANA
1200 AM EDT SUN AUG 02 2015

NOTE: "FAIR" INDICATES FEW OR NO CLOUDS BELOW 12,000 FEET WITH NO
SIGNIFICANT WEATHER AND/OR OBSTRUCTIONS TO VISIBILITY.

* THESE STATIONS ARE NOT UNDER NWS QUALITY CONTROL. THEY ALSO MAY NOT
  REPORT WEATHER SUCH AS PRECIPITATION OR FOG.

INZ001>027-020500-
NORTHERN INDIANA

CITY           SKY/WX    TMP DP  RH WIND       PRES   REMARKS
GARY*          PTCLDY    76  64  66 SW5       29.91F
VALPARAISO     PTCLDY    72  63  73 SW8       29.93S
MICHIGAN CITY* PTCLDY    72  59  64 SW7       29.91F
LAPORTE*       PTCLDY    71  64  77 SW6       29.93S
KNOX*          PTCLDY    70  61  73 SW6       29.92F
SOUTH BEND     CLEAR     73  61  65 SW12      29.91F
GOSHEN         CLEAR     71  61  70 SW9       29.91F
MONTICELLO*    CLEAR     69  65  86 SW6       29.94F
LOGANSPORT*    PTCLDY    66  59  77 SW6       29.96S
ROCHESTER*     PTCLDY    72  64  78 SW5       29.94F
WARSAW*        CLEAR     70  61  73 W8        29.93F
ANGOLA*        MOCLDY    66  61  82 CALM      29.92F
FORT WAYNE     MOCLDY    69  60  73 SW8       29.95S
HUNTINGTON*    PTCLDY    71  60  69 SW5       29.94F
PERU/GRISSOM   PTCLDY    67  61  81 SW9       29.94F
MARION*        PTCLDY    63  59  86 SW6       29.97S

$$
INZ028>050-020500-
CENTRAL INDIANA

CITY           SKY/WX    TMP DP  RH WIND       PRES   REMARKS
LAFAYETTE      CLEAR     67  64  90 W3        29.95F
KOKOMO*        PTCLDY    70  59  68 SW9       29.96F
MUNCIE*        PTCLDY    69  58  67 SW6       29.97F
INDIANAPOLIS   PTCLDY    68  59  73 SW7       29.97S

$$
MIZ043>046-050>051-056>058-064>065-071>073-077>080-020500-
SOUTHWEST LOWER MICHIGAN

CITY           SKY/WX    TMP DP  RH WIND       PRES   REMARKS
BATTLE CREEK   PTCLDY    68  59  73 CALM      29.91F
BENTON HARBOR  MOCLDY    67  62  84 CALM      29.89F
COLDWATER*     PTCLDY    65  60  82 CALM      29.92S
HILLSDALE*     PTCLDY    67  61  81 CALM      29.93F
HOLLAND        CLEAR     64  57  78 CALM      29.88F
GRAND RAPIDS   CLEAR     66  55  67 CALM      29.89F
KALAMAZOO      MOCLDY    68  61  78 S3        29.91F
STURGIS*       PTCLDY    68  61  77 CALM      29.91F
THREE RIVERS*  FAIR      67  62  84 CALM      29.91F

$$
OHZ001>008-015>018-024>025-020500-
NORTHWEST OHIO

CITY           SKY/WX    TMP DP  RH WIND       PRES   REMARKS
WAUSEON*       MOCLDY    66  63  88 CALM      29.92F
DEFIANCE       MOCLDY    71  58  63 SW8       29.92F
FINDLAY        CLEAR     65  58  78 S5        29.93S
TOLEDO EXPRESS MOCLDY    67  58  72 SW3       29.91F
TOLEDO METCALF MOCLDY    70  56  61 CALM      29.92F
LIMA           PTCLDY    70  57  63 SW7       29.96S

$$
AND FOR LAKE MICHIGAN COASTAL AND OPEN LAKE BUOY OBSERVATIONS

STATION/POSITION TEMP    WIND        PRES    VSBY  WAVE
                 AIR SEA DIR/SP/G                  HT/PER
                 (F)     (DEG/KT/KT) (MB)    (MI)  (FT/S)
CALUMET HARBOR    79     230/  7/ 10   N/A
MICHIGAN CITY     77     190/ 13/ 15   N/A
BURNS HARBOR      78     230/ 10/ 13 1013.2S
SAINT JOSEPH      76     210/  7/ 10 1012.5F
4 MI NW BRIDGMAN  75 73  260/ 14/ 16   N/A           2/ 3
MICHIGAN CITY     76 74  240/ 14/ 17   N/A           2/ 2

$$
&&



USA.gov is the U.S. government's official web portal to all federal, state and local government web resources and services.